Weather in Kineshma

Russia / Ivanovo Oblast     57°26′33″N   42°10′08″E
temp.,
°C
wind,
m/s
gust,
m/s
humid.,
%
clouds,
%
prec.,
mm/h
press.,
hPa
HPBL,
m
2 march, tue
tue200:00+1w61399100 0.4 1005677
03:00+1w61399100 0.8 1003676
06:00+1wnw61298100 0.8 1001751
09:00+1wnw5128999 0.9 10011077
12:00+1wnw5109184 0.1 10011008
15:00+1wnw598882 0.2 1001925
18:00−2wnw5119096 0.1 1002685
21:00−4nw4129091 0.2 1003546
3 march, wed
wed300:00−5nw5129197 0.1 1004669
03:00−7nw5129099 0.1 1007680
06:00−8nw51291100 0.1 1007578
09:00−7nw51190100 0.1 1009631
12:00−4wnw598583 0.0 1009809
15:00−3w588891 0.1 1008780
18:00−4w4119498 0.1 1007551
21:00−5wnw4129284 0.1 1007421
4 march, thu
thu400:00−5wsw399698 0.1 1005295
03:00−4wsw4109598 0.2 1003483
06:00−3sw61296100 1.3 998692
09:000wsw61396100 3.1 995878
12:000wsw61299100 1.2 993878
15:000wsw61298100 2.7 991847
18:00−2wnw41380100 1.4 991806
21:00−6w5138878 1.4 993699
5 march, fri
fri500:00−8wnw5139080 0.0 996561
03:00−10wnw4109290 0.1 1000398
06:00−13wnw389691 0.0 1003207
09:00−12nw359158 0.0 1005262
12:00−7wnw23780 0.0 1007409
15:00−5w22780 0.0 1008611
18:00−10wsw22900 0.0 100821
21:00−13wsw11890 0.0 100921
6 march, sat
sat600:00−14wsw11883 0.0 100920
03:00−15wnw119010 0.0 100920
06:00−15wnw119343 0.0 100820
09:00−10wnw129572 0.1 1008153
12:00−7nw348899 0.2 1008639
15:00−7nw458699 0.3 1008787
18:00−12nw2593100 0.1 1009135
21:00−15nnw229798 0.1 101020